Tracking 33744 objects as of 14-Apr-2026
HD Live streaming from Space Station
objects crossing your sky now

COSMOS 1814

Track COSMOS 1814 now!
10-day predictions
COSMOS 1814 is classified as:


NORAD ID: 17303
Int'l Code: 1987-006A
Perigee: 761.9 km
Apogee: 796.0 km
Inclination: 74.1 °
Period: 100.3 minutes
Semi major axis: 7149 km
RCS: 2.1989 m2 (large)
Launch date: January 21, 1987
Source: Commonwealth of Independent States (former USSR) (CIS)
Launch site: PLESETSK MISSILE AND SPACE COMPLEX (PKMTR)
Your satellite tracking list
Your tracking list is empty




NASA's NSSDC Master Catalog

Two Line Element Set (TLE):
1 17303U 87006A   26104.47920650  .00000070  00000-0  32960-4 0  9992
2 17303  74.0582  14.4348 0023851 130.9059 229.4164 14.35988754 53091
Source of the keplerian elements: AFSPC